Wind_Speed
15 15 15 16 16 17 17 17 16 15 15 14 14 13 12 10 9 9 8 8 7 6 4 3 2 2 1 1 1 2 2 2 3 4 4 4 4 4 5 5 5 6 6
13 13 14 15 15 16 16 16 15 14 14 13 13 12 11 10 9 8 8 8 7 6 5 4 3 3 2 1 2 2 2 2 3 3 3 4 5 5 5 6 6 6 7
12 13 13 13 14 14 14 14 14 14 13 12 12 12 12 10 9 8 8 8 6 6 6 5 4 3 3 2 3 3 2 2 2 2 2 3 4 5 6 6 7 7 8
11 12 13 12 13 13 13 13 13 13 13 13 12 12 11 10 9 8 8 9 7 6 6 5 4 4 4 3 3 4 4 3 2 2 2 3 3 4 5 6 7 8 8
10 11 12 12 12 13 13 13 12 13 12 13 12 11 11 10 10 9 9 8 6 6 6 6 6 5 4 4 4 4 4 3 2 2 2 3 4 5 5 6 7 7 8
9 10 11 12 11 12 12 12 12 12 12 12 12 10 10 10 11 11 10 9 6 6 6 6 5 5 5 5 5 5 5 4 3 3 4 4 4 5 6 6 6 7 7
9 10 11 12 11 11 11 11 11 11 12 11 11 11 11 11 10 11 10 9 7 6 6 6 6 5 5 5 5 6 6 6 6 5 5 6 6 6 7 7 7 7 8
10 11 12 12 12 12 11 11 11 11 11 11 11 10 10 10 10 10 9 9 8 7 6 7 6 6 6 6 6 6 6 7 7 7 7 6 6 7 7 7 7 8 8
11 12 12 12 12 12 12 12 11 11 10 10 10 10 10 10 9 9 9 9 9 7 7 7 7 7 7 7 7 7 7 7 7 8 7 7 8 8 8 8 8 8 9
12 12 12 12 11 11 12 11 12 11 10 10 10 10 10 10 10 9 9 9 8 9 7 7 7 7 8 8 8 8 8 8 8 9 9 8 9 9 10 10 10 10 11
12 12 13 13 13 13 13 12 12 12 11 11 10 10 10 10 10 10 8 8 8 9 9 8 8 8 8 9 9 9 9 9 10 10 9 10 10 10 10 11 11 11 12
13 13 13 13 13 14 14 13 12 12 12 11 11 10 10 10 11 10 9 9 9 9 10 9 9 9 9 10 10 10 10 10 11 11 11 11 11 11 11 11 11 12 13
14 14 15 15 15 15 15 14 13 12 12 12 12 11 11 11 11 11 11 10 10 10 10 10 11 11 11 11 11 11 12 12 13 13 13 12 12 13 12 13 13 14 14
17 16 16 16 16 16 16 15 14 14 13 13 13 12 12 12 12 12 11 11 10 11 11 11 12 12 12 11 12 12 12 13 14 14 14 14 13 13 13 14 15 15 15
20 19 19 19 18 18 17 17 16 16 16 15 14 14 13 13 13 13 12 12 12 12 12 13 13 13 13 13 13 13 14 14 14 15 15 15 15 15 15 15 16 16 15
22 21 22 21 20 20 19 18 18 17 17 17 16 15 15 15 14 14 14 14 14 14 14 14 14 15 14 15 15 14 14 15 16 16 16 16 16 16 17 17 16 16 16
24 23 23 23 23 22 21 20 19 18 18 18 18 18 18 17 16 16 16 15 15 15 15 16 16 16 16 16 16 16 16 16 17 17 17 17 18 18 18 18 18 17 17
27 26 25 25 23 23 23 22 20 20 19 19 19 19 19 18 18 18 17 16 16 17 17 17 17 17 17 18 18 17 17 18 19 19 20 19 19 19 19 19 19 19 19
28 28 27 26 25 24 24 23 22 22 21 21 21 20 20 20 20 19 18 18 18 18 19 19 19 19 19 19 19 19 19 19 20 21 21 21 21 21 20 20 20 20 20
29 29 28 27 26 25 25 25 25 25 24 23 22 22 21 21 21 20 20 20 20 20 20 20 19 19 19 20 20 21 20 21 21 21 22 22 21 21 21 21 21 21 20
30 30 30 30 29 28 28 27 27 26 25 25 24 24 23 23 22 22 21 21 20 20 20 20 20 20 20 21 21 22 22 21 22 22 22 22 22 22 23 22 22 21 22
32 31 31 32 31 31 30 28 27 26 26 26 26 25 25 23 23 22 22 22 22 22 22 23 23 22 22 23 23 23 24 23 24 24 23 23 23 22 23 23 23 23 23
35 33 33 32 32 32 31 29 28 28 27 27 27 26 26 26 25 25 24 24 25 25 24 25 25 25 25 25 25 26 25 25 25 25 25 24 23 23 23 24 24 24 24
37 36 34 33 33 33 33 32 31 30 29 28 28 28 27 27 27 27 26 26 26 27 27 27 27 27 27 27 27 27 27 27 27 26 25 24 24 24 24 25 25 25 25
38 37 36 35 34 34 34 34 33 32 31 29 29 29 29 28 29 29 28 28 28 28 28 28 28 28 28 28 29 28 28 27 27 27 26 26 25 25 25 25 25 26 26
39 38 37 36 35 34 34 34 33 33 32 31 31 31 31 31 30 30 30 30 30 29 29 29 29 29 29 29 29 28 28 28 28 28 27 27 26 26 26 26 26 26 26
Wind_Direction
29 30 31 33 35 36 38 39 40 45 47 46 45 41 39 40 42 43 42 44 49 50 48 58 52 28 16 6 317 278 266 279 278 278 272 253 243 232 230 229 232 235 244
20 24 28 29 32 34 35 36 38 40 41 40 40 36 33 34 36 40 41 40 42 41 40 45 43 33 26 18 350 321 310 304 281 270 252 238 240 245 245 239 238 242 248
12 17 20 25 25 27 31 32 32 35 34 32 33 29 28 29 30 34 35 31 35 38 33 30 28 32 32 20 7 352 341 345 321 285 263 251 243 249 253 248 246 247 247
3 10 14 17 19 20 24 26 25 26 27 24 26 25 25 27 26 25 24 22 24 25 28 23 23 28 20 12 3 2 352 343 349 321 284 268 258 259 256 260 260 255 252
357 3 7 8 10 14 16 18 19 17 17 16 18 24 27 23 22 19 16 15 12 16 20 17 20 20 14 13 8 3 1 352 341 331 309 284 269 264 262 264 266 265 257
342 349 353 360 3 5 6 10 13 12 13 13 16 19 20 21 18 16 13 9 6 6 6 3 6 8 6 1 0 357 356 343 324 311 305 300 295 281 275 271 267 265 264
327 336 345 351 354 355 356 359 4 4 3 5 9 14 16 17 13 12 9 8 7 3 359 356 359 1 359 352 344 342 342 340 325 310 305 303 298 293 285 281 278 273 271
314 320 332 341 344 346 348 349 350 352 353 355 359 3 5 6 6 6 4 4 3 360 356 352 355 351 347 346 340 332 332 331 328 314 303 303 303 299 292 283 282 278 278
304 310 319 328 333 337 339 340 337 339 344 346 349 352 353 356 357 358 1 1 358 355 349 345 347 345 341 339 335 328 324 325 327 323 313 306 302 295 292 289 287 285 278
289 301 308 312 317 324 329 330 329 329 331 334 337 341 344 345 347 348 351 354 355 351 342 339 337 333 331 331 328 324 322 323 324 322 317 312 308 299 292 289 290 290 285
285 290 299 307 310 313 316 318 324 323 323 324 327 329 332 335 337 339 336 341 342 343 344 335 331 325 322 319 317 316 315 315 318 319 317 311 308 306 301 296 291 291 290
285 289 296 303 306 308 311 310 315 317 317 315 316 318 320 325 329 331 328 327 329 330 333 336 330 320 315 313 311 310 309 309 311 312 312 310 308 305 298 297 294 294 295
289 293 294 296 300 303 305 306 308 308 308 306 306 308 311 315 317 320 318 318 318 319 320 323 325 321 315 311 307 307 307 306 306 306 306 305 305 304 301 298 297 296 295
287 290 292 292 294 296 297 299 299 299 299 299 297 299 302 308 311 311 311 311 311 313 313 313 315 315 314 312 306 305 305 304 303 303 303 301 304 303 301 299 297 295 294
280 284 286 288 291 291 291 293 294 293 294 294 294 293 294 299 302 304 305 304 303 303 305 306 309 310 309 306 304 303 302 301 301 300 300 299 300 302 299 297 298 296 292
273 278 281 284 286 286 288 290 290 289 289 290 292 291 290 294 296 297 299 298 297 296 298 299 301 303 303 303 303 302 300 299 299 298 297 297 296 297 297 297 298 299 297
271 275 279 280 281 282 282 287 288 287 285 284 286 288 287 288 290 291 294 293 290 290 291 294 296 297 297 298 298 299 297 297 298 298 295 292 292 293 294 296 295 295 296
274 274 276 278 279 279 280 282 283 284 283 284 285 287 285 284 286 287 290 290 288 288 290 292 292 290 291 292 295 295 295 294 294 294 294 293 292 293 293 293 294 295 297
273 275 274 275 276 278 278 277 280 281 281 281 282 284 285 284 284 286 289 290 291 290 290 292 291 289 290 290 291 293 293 294 294 294 294 293 292 292 293 294 293 293 294
271 273 272 274 275 277 277 278 280 280 279 279 279 282 283 283 283 284 287 288 289 290 289 290 290 290 289 289 290 290 292 294 294 294 295 295 294 292 292 292 292 292 293
267 270 273 273 274 276 277 277 277 277 277 277 277 279 280 279 280 281 283 285 289 290 290 289 289 290 289 288 290 290 292 293 294 294 293 295 294 293 293 293 293 293 294
265 268 270 272 273 275 276 276 277 276 275 274 276 277 279 280 279 280 281 284 287 288 288 288 288 288 288 289 289 290 291 292 295 297 295 295 294 295 295 294 293 294 293
264 266 268 270 272 273 273 274 275 274 273 273 274 275 276 278 279 279 281 281 282 283 284 285 284 284 287 288 290 291 291 292 294 296 295 296 295 295 295 294 293 294 294
265 267 268 269 270 270 270 272 274 274 273 271 272 273 275 276 278 278 279 280 281 281 283 283 283 283 285 285 286 290 290 292 293 294 294 295 295 294 293 293 293 293 293
264 265 267 268 268 268 269 270 271 272 272 270 269 270 272 273 274 275 276 278 279 280 282 283 284 284 284 285 286 287 288 288 288 289 290 292 292 291 292 293 291 291 292
262 264 266 266 267 267 268 269 270 271 270 269 268 268 270 271 272 274 275 276 277 278 279 281 283 284 284 284 285 285 286 287 287 288 288 289 291 291 291 291 290 289 290
Height
5928 5926 5923 5921 5918 5916 5913 5911 5909 5907 5906 5904 5903 5901 5900 5899 5897 5896 5895 5894 5893 5891 5890 5889 5888 5888 5887 5886 5886 5886 5885 5885 5884 5883 5883 5883 5883 5882 5882 5882 5882 5882 5882
5929 5927 5925 5922 5920 5918 5916 5913 5911 5909 5907 5906 5904 5903 5901 5900 5898 5897 5896 5894 5893 5892 5890 5889 5888 5887 5886 5886 5885 5885 5884 5883 5883 5882 5882 5882 5882 5881 5881 5881 5881 5881 5881
5930 5928 5926 5924 5922 5920 5917 5915 5913 5911 5909 5907 5906 5904 5902 5900 5899 5898 5896 5895 5893 5892 5890 5889 5888 5887 5886 5885 5885 5884 5883 5882 5881 5881 5881 5881 5881 5881 5880 5880 5880 5879 5879
5930 5929 5927 5925 5923 5921 5918 5916 5914 5912 5910 5908 5906 5904 5903 5901 5899 5898 5896 5895 5894 5892 5891 5890 5888 5887 5886 5885 5884 5884 5883 5882 5881 5880 5880 5880 5879 5879 5879 5879 5878 5877 5877
5930 5929 5927 5925 5923 5921 5919 5917 5915 5913 5911 5909 5907 5905 5903 5901 5899 5898 5896 5895 5894 5893 5891 5890 5889 5887 5886 5885 5884 5883 5882 5881 5880 5880 5879 5879 5878 5878 5878 5877 5877 5876 5875
5930 5929 5928 5925 5923 5922 5920 5917 5915 5913 5911 5910 5907 5905 5903 5901 5900 5898 5896 5895 5894 5892 5891 5890 5888 5887 5886 5885 5884 5883 5882 5881 5880 5879 5878 5878 5877 5876 5876 5875 5875 5874 5874
5929 5928 5927 5925 5923 5921 5920 5918 5916 5914 5912 5909 5908 5905 5904 5902 5900 5898 5896 5895 5893 5892 5891 5889 5888 5887 5886 5884 5883 5882 5881 5880 5879 5878 5877 5876 5875 5875 5874 5873 5872 5871 5871
5927 5926 5925 5924 5922 5920 5919 5917 5915 5913 5912 5910 5908 5906 5904 5902 5900 5898 5897 5895 5893 5891 5890 5889 5887 5886 5885 5884 5883 5881 5880 5879 5878 5876 5875 5874 5874 5873 5872 5871 5870 5869 5869
5924 5924 5923 5922 5921 5919 5917 5916 5914 5912 5911 5909 5907 5905 5903 5901 5900 5898 5896 5894 5893 5891 5890 5888 5887 5886 5884 5883 5882 5880 5879 5878 5876 5875 5874 5872 5872 5871 5869 5869 5868 5867 5866
5922 5922 5921 5920 5919 5917 5916 5914 5912 5911 5909 5908 5906 5904 5902 5901 5899 5897 5896 5894 5893 5891 5889 5888 5886 5885 5883 5882 5881 5879 5878 5876 5875 5874 5872 5871 5869 5868 5867 5866 5865 5864 5863
5920 5920 5919 5918 5917 5915 5914 5912 5910 5908 5907 5906 5904 5903 5901 5899 5898 5896 5895 5893 5892 5890 5888 5887 5885 5883 5882 5881 5879 5878 5876 5875 5873 5872 5870 5869 5868 5866 5864 5863 5862 5861 5860
5916 5916 5916 5915 5914 5912 5911 5910 5908 5906 5905 5903 5902 5901 5899 5898 5896 5894 5893 5891 5890 5888 5887 5885 5883 5882 5880 5879 5877 5876 5875 5873 5872 5870 5868 5867 5865 5864 5862 5861 5859 5858 5856
5912 5912 5911 5911 5910 5909 5908 5907 5906 5904 5902 5901 5899 5898 5897 5895 5894 5892 5891 5889 5888 5886 5885 5883 5881 5880 5878 5876 5875 5873 5872 5871 5869 5868 5866 5864 5862 5861 5859 5858 5856 5855 5853
5907 5907 5907 5906 5906 5906 5905 5903 5902 5901 5899 5897 5896 5895 5894 5893 5891 5889 5888 5887 5885 5884 5882 5881 5879 5877 5876 5874 5872 5871 5870 5868 5866 5865 5863 5861 5859 5858 5856 5854 5853 5851 5850
5902 5902 5903 5902 5902 5901 5900 5899 5898 5896 5895 5893 5893 5892 5891 5889 5888 5887 5885 5884 5882 5881 5880 5878 5876 5875 5873 5871 5870 5868 5866 5865 5863 5861 5859 5857 5856 5854 5852 5851 5849 5847 5846
5896 5897 5897 5897 5897 5896 5895 5894 5893 5892 5891 5889 5889 5888 5887 5885 5884 5883 5882 5880 5879 5877 5876 5875 5873 5871 5869 5868 5866 5864 5863 5861 5859 5857 5855 5853 5851 5850 5848 5846 5845 5843 5841
5890 5890 5890 5891 5891 5890 5889 5888 5887 5886 5885 5885 5884 5883 5882 5881 5880 5879 5877 5876 5875 5873 5872 5871 5869 5867 5866 5864 5862 5860 5858 5857 5855 5853 5851 5849 5847 5845 5843 5841 5840 5838 5837
5883 5883 5883 5883 5884 5884 5883 5883 5881 5880 5879 5879 5878 5877 5876 5875 5875 5874 5872 5871 5870 5869 5867 5866 5864 5863 5861 5859 5857 5855 5854 5852 5850 5848 5846 5844 5842 5840 5838 5837 5835 5833 5832
5876 5876 5875 5876 5876 5876 5876 5875 5875 5874 5874 5873 5872 5872 5871 5870 5869 5868 5867 5866 5865 5864 5862 5861 5859 5857 5856 5854 5852 5850 5849 5847 5845 5843 5841 5839 5837 5834 5832 5831 5830 5828 5826
5870 5869 5870 5869 5869 5869 5869 5868 5868 5868 5867 5867 5866 5866 5865 5864 5863 5862 5861 5860 5859 5858 5856 5855 5853 5851 5850 5848 5847 5845 5843 5842 5840 5837 5835 5834 5832 5829 5827 5826 5824 5823 5821
5862 5862 5863 5863 5862 5861 5861 5861 5861 5860 5860 5860 5859 5859 5858 5857 5856 5856 5855 5854 5852 5851 5849 5848 5847 5845 5844 5842 5841 5839 5837 5836 5834 5831 5829 5827 5825 5823 5822 5820 5819 5817 5815
5854 5854 5854 5855 5854 5854 5854 5853 5853 5853 5852 5852 5852 5851 5851 5850 5849 5848 5848 5847 5846 5844 5843 5842 5841 5839 5837 5836 5834 5832 5831 5829 5827 5825 5823 5821 5819 5817 5815 5814 5813 5811 5809
5845 5846 5846 5846 5846 5846 5845 5845 5844 5844 5844 5844 5844 5844 5843 5843 5842 5841 5840 5839 5839 5837 5836 5835 5834 5832 5831 5829 5828 5826 5824 5822 5820 5818 5816 5814 5813 5811 5809 5807 5806 5804 5802
5836 5836 5836 5836 5837 5837 5836 5836 5835 5835 5835 5835 5835 5835 5835 5835 5834 5833 5833 5832 5831 5830 5829 5828 5826 5825 5823 5822 5820 5818 5816 5815 5813 5811 5809 5807 5805 5804 5802 5800 5799 5797 5795
5825 5826 5826 5826 5826 5826 5827 5826 5826 5826 5825 5825 5826 5826 5826 5826 5826 5825 5824 5823 5823 5822 5821 5820 5818 5817 5816 5814 5812 5810 5809 5807 5805 5803 5802 5800 5798 5796 5794 5793 5791 5789 5788
5815 5816 5816 5816 5816 5816 5816 5816 5816 5815 5815 5815 5816 5816 5817 5817 5817 5816 5816 5815 5814 5813 5812 5811 5810 5808 5807 5805 5803 5802 5800 5798 5797 5796 5794 5792 5790 5788 5786 5784 5783 5781 5779